EN

Hourly Weather Almaya

Today, 27 January, Wednesday

Time Temperature Precipitation Wind Pressure Humidity
00:00 +11°C° 0 mm 1 mps 541 mmHg 57%
01:00 +11°C° 0 mm 1 mps 540 mmHg 57%
02:00 +11°C° 0 mm 1 mps 540 mmHg 58%
03:00 +10°C° 0 mm 1 mps 540 mmHg 58%
04:00 +10°C° 0 mm 1 mps 540 mmHg 59%
05:00 +10°C° 0 mm 1 mps 540 mmHg 59%
06:00 +11°C° 0 mm 1 mps 542 mmHg 55%
07:00 +13°C° 0 mm 1 mps 543 mmHg 50%
08:00 +14°C° 0 mm 1 mps 544 mmHg 46%
09:00 +16°C° 0 mm 2 mps 545 mmHg 41%
10:00 +18°C° 0 mm 2 mps 546 mmHg 36%
11:00 +20°C° 0 mm 3 mps 546 mmHg 32%
12:00 +20°C° 0 mm 3 mps 546 mmHg 31%
13:00 +20°C° 0 mm 3 mps 546 mmHg 30%
14:00 +21°C° 0 mm 3 mps 545 mmHg 28%
15:00 +19°C° 0.2 mm 3 mps 545 mmHg 38%
16:00 +17°C° 0.2 mm 3 mps 544 mmHg 47%
17:00 +16°C° 0.2 mm 2 mps 543 mmHg 56%
18:00 +14°C° 0.2 mm 2 mps 543 mmHg 62%
19:00 +12°C° 0.2 mm 3 mps 543 mmHg 68%
20:00 +11°C° 0.2 mm 3 mps 543 mmHg 74%
21:00 +10°C° 0 mm 2 mps 543 mmHg 77%
22:00 +9°C° 0 mm 2 mps 543 mmHg 79%
23:00 +9°C° 0 mm 2 mps 543 mmHg 82%

Tomorrow, 28 January, Thursday

Time Temperature Precipitation Wind Pressure Humidity
00:00 +8°C° 0 mm 2 mps 543 mmHg 81%
01:00 +8°C° 0 mm 2 mps 543 mmHg 81%
02:00 +8°C° 0 mm 2 mps 543 mmHg 80%
03:00 +7°C° 0 mm 2 mps 542 mmHg 80%
04:00 +7°C° 0 mm 2 mps 542 mmHg 80%
05:00 +6°C° 0 mm 2 mps 542 mmHg 80%
06:00 +7°C° 0 mm 2 mps 543 mmHg 76%
07:00 +7°C° 0 mm 2 mps 543 mmHg 73%
08:00 +8°C° 0 mm 2 mps 544 mmHg 70%
09:00 +10°C° 0 mm 2 mps 545 mmHg 61%
10:00 +13°C° 0 mm 2 mps 546 mmHg 51%
11:00 +16°C° 0 mm 2 mps 547 mmHg 42%
12:00 +16°C° 0 mm 2 mps 547 mmHg 39%
13:00 +17°C° 0 mm 2 mps 546 mmHg 37%
14:00 +18°C° 0 mm 2 mps 546 mmHg 34%
15:00 +17°C° 0 mm 2 mps 546 mmHg 40%
16:00 +15°C° 0 mm 1 mps 545 mmHg 45%
17:00 +14°C° 0 mm 1 mps 544 mmHg 50%
18:00 +13°C° 0 mm 1 mps 544 mmHg 57%
19:00 +12°C° 0 mm 1 mps 544 mmHg 65%
20:00 +10°C° 0 mm 1 mps 544 mmHg 72%
21:00 +10°C° 0 mm 1 mps 543 mmHg 76%
22:00 +9°C° 0 mm 1 mps 543 mmHg 81%
23:00 +8°C° 0 mm 1 mps 543 mmHg 85%

Day after tomorrow, 29 January, Friday

Time Temperature Precipitation Wind Pressure Humidity
00:00 +8°C° 0 mm 1 mps 542 mmHg 85%
01:00 +8°C° 0 mm 1 mps 542 mmHg 86%
02:00 +7°C° 0 mm 1 mps 542 mmHg 87%
03:00 +7°C° 0 mm 1 mps 542 mmHg 86%
04:00 +7°C° 0 mm 1 mps 542 mmHg 86%
05:00 +7°C° 0 mm 1 mps 541 mmHg 86%
06:00 +8°C° 0 mm 1 mps 542 mmHg 79%
07:00 +9°C° 0 mm 0 mps 544 mmHg 72%
08:00 +10°C° 0 mm 0 mps 545 mmHg 66%
09:00 +12°C° 0 mm 0 mps 545 mmHg 57%
10:00 +15°C° 0 mm 1 mps 546 mmHg 48%
11:00 +19°C° 0 mm 1 mps 547 mmHg 39%
12:00 +19°C° 0 mm 1 mps 546 mmHg 38%
13:00 +18°C° 0 mm 2 mps 546 mmHg 36%
14:00 +19°C° 0 mm 2 mps 545 mmHg 34%
15:00 +18°C° 0 mm 2 mps 544 mmHg 40%
16:00 +17°C° 0 mm 2 mps 543 mmHg 45%
17:00 +15°C° 0 mm 2 mps 543 mmHg 51%
18:00 +14°C° 0 mm 1 mps 543 mmHg 56%
19:00 +13°C° 0 mm 1 mps 543 mmHg 62%
20:00 +12°C° 0 mm 1 mps 543 mmHg 67%
21:00 +12°C° 0 mm 1 mps 543 mmHg 67%
22:00 +11°C° 0 mm 0 mps 543 mmHg 67%
23:00 +10°C° 0 mm 0 mps 543 mmHg 68%

30 January, Saturday

Time Temperature Precipitation Wind Pressure Humidity
00:00 +10°C° 0 mm 0 mps 542 mmHg 70%
01:00 +9°C° 0 mm 0 mps 541 mmHg 72%
02:00 +9°C° 0 mm 0 mps 541 mmHg 75%
03:00 +8°C° 0 mm 0 mps 540 mmHg 76%
04:00 +8°C° 0 mm 0 mps 540 mmHg 77%
05:00 +9°C° 0 mm 1 mps 540 mmHg 78%
06:00 +10°C° 0 mm 1 mps 541 mmHg 70%
07:00 +12°C° 0 mm 1 mps 542 mmHg 63%
08:00 +13°C° 0 mm 1 mps 543 mmHg 56%
09:00 +15°C° 0 mm 1 mps 544 mmHg 48%
10:00 +18°C° 0 mm 1 mps 544 mmHg 40%
11:00 +19°C° 0 mm 2 mps 545 mmHg 32%
12:00 +19°C° 0 mm 2 mps 545 mmHg 30%
13:00 +20°C° 0 mm 2 mps 544 mmHg 28%
14:00 +21°C° 0 mm 2 mps 544 mmHg 25%
15:00 +19°C° 0 mm 2 mps 543 mmHg 30%
16:00 +18°C° 0 mm 2 mps 543 mmHg 35%
17:00 +18°C° 0 mm 1 mps 542 mmHg 40%
18:00 +16°C° 0 mm 1 mps 542 mmHg 45%
19:00 +15°C° 0 mm 1 mps 542 mmHg 50%
20:00 +13°C° 0 mm 2 mps 542 mmHg 54%
21:00 +13°C° 0 mm 1 mps 542 mmHg 55%
22:00 +12°C° 0 mm 1 mps 542 mmHg 55%
23:00 +12°C° 0 mm 1 mps 541 mmHg 56%

31 January, Sunday

Time Temperature Precipitation Wind Pressure Humidity
00:00 +11°C° 0 mm 1 mps 541 mmHg 55%
01:00 +11°C° 0 mm 1 mps 541 mmHg 54%
02:00 +10°C° 0 mm 1 mps 540 mmHg 53%
03:00 +10°C° 0 mm 1 mps 540 mmHg 53%
04:00 +9°C° 0 mm 1 mps 540 mmHg 52%
05:00 +9°C° 0 mm 1 mps 540 mmHg 52%
06:00 +11°C° 0 mm 1 mps 541 mmHg 47%
07:00 +11°C° 0 mm 0 mps 542 mmHg 43%
08:00 +13°C° 0 mm 0 mps 544 mmHg 38%
09:00 +16°C° 0 mm 1 mps 544 mmHg 34%
10:00 +19°C° 0 mm 1 mps 545 mmHg 29%
11:00 +20°C° 0 mm 2 mps 546 mmHg 24%
12:00 +20°C° 0 mm 2 mps 546 mmHg 23%
13:00 +20°C° 0 mm 2 mps 545 mmHg 22%
14:00 +21°C° 0 mm 2 mps 545 mmHg 21%
15:00 +19°C° 0 mm 2 mps 544 mmHg 25%
16:00 +18°C° 0 mm 2 mps 544 mmHg 28%
17:00 +17°C° 0 mm 2 mps 543 mmHg 32%
18:00 +15°C° 0 mm 2 mps 543 mmHg 41%
19:00 +14°C° 0 mm 2 mps 543 mmHg 51%
20:00 +12°C° 0 mm 2 mps 543 mmHg 60%
21:00 +10°C° 0 mm 2 mps 543 mmHg 65%
22:00 +9°C° 0 mm 2 mps 543 mmHg 70%
23:00 +8°C° 0 mm 2 mps 542 mmHg 76%

1 February, Monday

Time Temperature Precipitation Wind Pressure Humidity
00:00 +8°C° 0 mm 2 mps 542 mmHg 77%
01:00 +7°C° 0 mm 2 mps 541 mmHg 79%
02:00 +6°C° 0 mm 2 mps 541 mmHg 81%
03:00 +6°C° 0 mm 2 mps 541 mmHg 82%
04:00 +6°C° 0 mm 2 mps 541 mmHg 83%
05:00 +6°C° 0 mm 2 mps 541 mmHg 84%
06:00 +7°C° 0 mm 2 mps 542 mmHg 79%
07:00 +8°C° 0 mm 2 mps 543 mmHg 73%
08:00 +9°C° 0 mm 2 mps 544 mmHg 68%
09:00 +12°C° 0 mm 2 mps 544 mmHg 59%
10:00 +14°C° 0 mm 2 mps 545 mmHg 51%
11:00 +16°C° 0 mm 2 mps 546 mmHg 42%
12:00 +17°C° 0 mm 2 mps 546 mmHg 39%
13:00 +17°C° 0 mm 2 mps 545 mmHg 35%
14:00 +18°C° 0 mm 2 mps 545 mmHg 32%
15:00 +17°C° 0 mm 2 mps 544 mmHg 36%
16:00 +16°C° 0 mm 1 mps 544 mmHg 39%
17:00 +15°C° 0 mm 1 mps 543 mmHg 43%
18:00 +14°C° 0 mm 1 mps 543 mmHg 51%
19:00 +12°C° 0 mm 1 mps 542 mmHg 60%
20:00 +10°C° 0 mm 1 mps 542 mmHg 68%
21:00 +10°C° 0 mm 1 mps 542 mmHg 71%
22:00 +9°C° 0 mm 1 mps 542 mmHg 75%
23:00 +9°C° 0 mm 1 mps 542 mmHg 78%
Show more